Regional Weather Roundup
Issued by NWS

Home | Current Version | Previous Version | Text Only | Print | Product List | Glossary On
Versions: 1 2 3 4 5 6 7 8 9 10 11 12 13 14 15 16 17 18 19 20 21 22 23 24 25 26 27 28 29 30 31 32 33 34 35 36 37 38 39 40 41 42 43 44 45 46 47 48 49 50
000
ASUS43 KFSD 280110
RWRSD

WEATHER ROUNDUP FOR SOUTH DAKOTA
NATIONAL WEATHER SERVICE SIOUX FALLS SD
800 PM CDT SUN JUL 27 2014

NOTE: "FAIR" INDICATES FEW OR NO CLOUDS BELOW 12,000 FEET WITH NO
SIGNIFICANT WEATHER AND/OR OBSTRUCTIONS TO VISIBILITY.


SDZ001>005-009-010-012>017-280200-
NORTHWEST AND NORTH CENTRAL SOUTH DAKOTA

CITY           SKY/WX    TMP DP  RH WIND       PRES   REMARKS
BUFFALO          N/A     73  53  49 NE16      30.22S
FAITH            N/A     72  53  51 NE14      30.26S
MOBRIDGE       MOSUNNY   68  52  56 N14G20    30.23S
$$

SDZ012>016-024>037-041>051-057-063-072>074-280200-
SOUTHWEST AND SOUTH CENTRAL SOUTH DAKOTA

CITY           SKY/WX    TMP DP  RH WIND       PRES   REMARKS
RAPID CTY ARPT SUNNY     76  52  43 E9        30.26S
PIERRE         SUNNY     74  54  49 N14       30.21S
CUSTER         SUNNY     70  46  42 NE8       30.39R
ELLSWORTH AFB  SUNNY     78  50  36 E13       30.26S
PHILIP         SUNNY     77  53  43 NE13      30.22S
PINE RIDGE     SUNNY     77  52  41 NE8       30.26S
WINNER         FAIR      77  51  40 N14       30.22R
$$

SDZ004>011-016>023-039-040-280200-
NORTHEAST SOUTH DAKOTA

CITY           SKY/WX    TMP DP  RH WIND       PRES   REMARKS
ABERDEEN       CLOUDY    65  55  70 N14       30.22R
WATERTOWN      CLOUDY    64  56  75 N12       30.19R
SISSETON         N/A     66  56  70 N12       30.17R
$$

SDZ017-020-022-023-036>040-048>070-280200-
SOUTHEAST SOUTH DAKOTA

CITY           SKY/WX    TMP DP  RH WIND       PRES   REMARKS
SIOUX FALLS    PTCLDY    66  55  67 NW13      30.17R
HURON          CLEAR     67  54  63 N15       30.19S
CHAMBERLAIN    SUNNY     73  53  51 N14       30.20S
MITCHELL       PTCLDY    69  56  62 N16       30.20R
YANKTON        CLEAR     70  55  60 N15       30.18R
$$

ABBREVIATIONS USED IN REMARKS
   TC - TEMPERATURE IN CELSIUS
  WCI - WIND CHILL INDEX
   HX - HEAT INDEX
  VSB - VISIBILITY




USA.gov is the U.S. government's official web portal to all federal, state and local government web resources and services.